Time,TemperatureF,DewpointF,PressureIn,WindDirection,WindDirectionDegrees,WindSpeedMPH,WindSpeedGustMPH,Humidity,HourlyPrecipIn,Conditions,Clouds,dailyrainin,SoftwareType,DateUTC
2013-08-08 00:00:00,81.8,79.6,29.91,SE,143,10.1,14.3,93,0.00,CLR,,0.00,WeatherDisplay:10.37,2013-08-08 05:00:00,
2013-08-08 00:05:00,81.8,79.9,29.91,SE,134,10.5,15.3,94,0.00,CLR,,0.00,WeatherDisplay:10.37,2013-08-08 05:05:00,
2013-08-08 00:10:00,81.7,79.8,29.91,SSE,152,12.0,17.5,94,0.00,CLR,,0.00,WeatherDisplay:10.37,2013-08-08 05:10:00,
2013-08-08 00:15:00,81.9,80.0,29.91,ESE,114,9.6,15.5,94,0.00,CLR,,0.00,WeatherDisplay:10.37,2013-08-08 05:15:00,
2013-08-08 00:20:00,81.8,79.9,29.91,SE,144,11.2,16.1,94,0.00,CLR,,0.00,WeatherDisplay:10.37,2013-08-08 05:20:00,
2013-08-08 00:25:00,81.7,79.8,29.91,SE,133,11.2,18.4,94,0.00,CLR,,0.00,WeatherDisplay:10.37,2013-08-08 05:25:00,
2013-08-08 00:30:00,81.8,80.2,29.91,SE,141,11.4,17.3,95,0.00,CLR,,0.00,WeatherDisplay:10.37,2013-08-08 05:30:00,
2013-08-08 00:35:00,81.7,80.1,29.91,SE,136,10.7,18.4,95,0.00,CLR,,0.00,WeatherDisplay:10.37,2013-08-08 05:35:00,
2013-08-08 00:40:00,81.7,80.1,29.91,SE,128,11.2,17.3,95,0.00,CLR,,0.00,WeatherDisplay:10.37,2013-08-08 05:40:00,
2013-08-08 00:45:00,81.8,80.2,29.91,South,171,9.5,16.1,95,0.00,CLR,,0.00,WeatherDisplay:10.37,2013-08-08 05:45:00,
2013-08-08 00:50:00,81.7,80.1,29.91,SSE,161,9.6,13.7,95,0.00,CLR,,0.00,WeatherDisplay:10.37,2013-08-08 05:50:00,
2013-08-08 00:55:00,81.6,80.0,29.91,SSE,157,9.2,15.0,95,0.00,CLR,,0.00,WeatherDisplay:10.37,2013-08-08 05:55:00,
2013-08-08 01:00:00,81.7,80.1,29.91,SSE,150,11.3,15.0,95,0.00,CLR,,0.00,WeatherDisplay:10.37,2013-08-08 06:00:00,
2013-08-08 01:05:00,81.7,80.1,29.91,SSE,160,10.9,15.0,95,0.00,CLR,,0.00,WeatherDisplay:10.37,2013-08-08 06:05:00,
2013-08-08 01:10:00,81.5,79.9,29.91,ESE,114,11.1,16.5,95,0.00,CLR,,0.00,WeatherDisplay:10.37,2013-08-08 06:10:00,
2013-08-08 01:15:00,81.6,80.0,29.91,SSE,155,10.4,15.4,95,0.00,CLR,,0.00,WeatherDisplay:10.37,2013-08-08 06:15:00,
2013-08-08 01:20:00,81.6,80.0,29.91,SSE,155,10.0,16.1,95,0.00,CLR,,0.00,WeatherDisplay:10.37,2013-08-08 06:20:00,
2013-08-08 01:25:00,81.6,80.0,29.91,SSE,168,10.0,15.0,95,0.00,CLR,,0.00,WeatherDisplay:10.37,2013-08-08 06:25:00,
2013-08-08 01:30:00,81.5,79.9,29.91,SSE,148,11.9,18.5,95,0.00,CLR,,0.00,WeatherDisplay:10.37,2013-08-08 06:30:00,
2013-08-08 01:35:00,81.5,79.9,29.91,SSE,151,8.7,16.1,95,0.00,CLR,,0.00,WeatherDisplay:10.37,2013-08-08 06:35:00,
2013-08-08 01:40:00,81.4,79.8,29.91,SSE,162,10.3,16.1,95,0.00,CLR,,0.00,WeatherDisplay:10.37,2013-08-08 06:40:00,
2013-08-08 01:45:00,81.4,79.8,29.91,South,172,8.3,16.1,95,0.00,CLR,,0.00,WeatherDisplay:10.37,2013-08-08 06:45:00,
2013-08-08 01:50:00,81.3,80.0,29.91,SSE,168,8.9,13.2,96,0.00,CLR,,0.00,WeatherDisplay:10.37,2013-08-08 06:50:00,
2013-08-08 01:55:00,81.4,80.1,29.91,SSE,152,10.0,15.2,96,0.00,CLR,,0.00,WeatherDisplay:10.37,2013-08-08 06:55:00,
2013-08-08 02:00:00,81.4,79.8,29.91,South,178,10.5,17.3,95,0.00,CLR,,0.00,WeatherDisplay:10.37,2013-08-08 07:00:00,
2013-08-08 02:05:00,81.3,80.0,29.91,SSE,168,10.9,15.0,96,0.00,CLR,,0.00,WeatherDisplay:10.37,2013-08-08 07:05:00,
2013-08-08 02:10:00,81.4,80.1,29.91,SSE,151,9.7,15.0,96,0.00,CLR,,0.00,WeatherDisplay:10.37,2013-08-08 07:10:00,
2013-08-08 02:15:00,81.4,80.1,29.90,SSE,147,9.9,13.8,96,0.00,CLR,,0.00,WeatherDisplay:10.37,2013-08-08 07:15:00,
2013-08-08 02:20:00,81.4,80.1,29.90,SSE,148,10.5,13.9,96,0.00,CLR,,0.00,WeatherDisplay:10.37,2013-08-08 07:20:00,
2013-08-08 02:25:00,81.3,80.0,29.90,SSE,161,10.8,16.7,96,0.00,CLR,,0.00,WeatherDisplay:10.37,2013-08-08 07:25:00,
2013-08-08 02:30:00,81.4,80.1,29.90,SE,144,12.3,17.6,96,0.00,CLR,,0.00,WeatherDisplay:10.37,2013-08-08 07:30:00,
2013-08-08 02:35:00,81.3,80.0,29.90,SSE,154,13.5,18.7,96,0.00,CLR,,0.00,WeatherDisplay:10.37,2013-08-08 07:35:00,
2013-08-08 02:40:00,81.3,80.0,29.90,South,174,11.4,17.3,96,0.00,CLR,,0.00,WeatherDisplay:10.37,2013-08-08 07:40:00,
2013-08-08 02:45:00,81.2,80.0,29.90,SE,141,11.7,16.6,96,0.00,CLR,,0.00,WeatherDisplay:10.37,2013-08-08 07:45:00,
2013-08-08 02:50:00,81.2,80.0,29.90,SE,137,11.4,18.8,96,0.00,CLR,,0.00,WeatherDisplay:10.37,2013-08-08 07:50:00,
2013-08-08 02:55:00,81.2,80.0,29.90,South,175,9.8,18.4,96,0.00,CLR,,0.00,WeatherDisplay:10.37,2013-08-08 07:55:00,
2013-08-08 03:00:00,81.2,80.0,29.89,SSE,164,12.7,20.1,96,0.00,CLR,,0.00,WeatherDisplay:10.37,2013-08-08 08:00:00,
2013-08-08 03:05:00,81.2,80.0,29.89,SSE,158,11.4,17.3,96,0.00,CLR,,0.00,WeatherDisplay:10.37,2013-08-08 08:05:00,
2013-08-08 03:10:00,81.3,80.0,29.89,South,174,10.3,15.7,96,0.00,CLR,,0.00,WeatherDisplay:10.37,2013-08-08 08:10:00,
2013-08-08 03:15:00,81.4,80.1,29.89,SSE,157,11.7,18.2,96,0.00,CLR,,0.00,WeatherDisplay:10.37,2013-08-08 08:15:00,
2013-08-08 03:20:00,81.3,80.0,29.89,SSE,162,10.5,17.5,96,0.00,CLR,,0.00,WeatherDisplay:10.37,2013-08-08 08:20:00,
2013-08-08 03:25:00,81.1,79.9,29.89,South,186,10.5,20.2,96,0.00,CLR,,0.00,WeatherDisplay:10.37,2013-08-08 08:25:00,
2013-08-08 03:30:00,81.2,80.0,29.89,South,171,9.5,19.6,96,0.00,CLR,,0.00,WeatherDisplay:10.37,2013-08-08 08:30:00,
2013-08-08 03:35:00,81.2,80.0,29.89,SSE,165,11.8,16.3,96,0.00,CLR,,0.00,WeatherDisplay:10.37,2013-08-08 08:35:00,
2013-08-08 03:40:00,81.2,80.0,29.88,SSE,164,10.7,16.1,96,0.00,CLR,,0.00,WeatherDisplay:10.37,2013-08-08 08:40:00,
2013-08-08 03:45:00,81.2,80.0,29.88,South,178,10.0,14.5,96,0.00,CLR,,0.00,WeatherDisplay:10.37,2013-08-08 08:45:00,
2013-08-08 03:50:00,81.2,80.0,29.88,SSE,155,11.4,18.4,96,0.00,CLR,,0.00,WeatherDisplay:10.37,2013-08-08 08:50:00,
2013-08-08 03:55:00,81.0,79.8,29.88,South,182,10.0,16.1,96,0.00,CLR,,0.00,WeatherDisplay:10.37,2013-08-08 08:55:00,
2013-08-08 04:00:00,81.0,79.8,29.88,SSE,168,10.9,17.3,96,0.00,CLR,,0.00,WeatherDisplay:10.37,2013-08-08 09:00:00,
2013-08-08 04:05:00,81.0,79.8,29.88,SSE,155,12.4,18.4,96,0.00,CLR,,0.00,WeatherDisplay:10.37,2013-08-08 09:05:00,
2013-08-08 04:10:00,81.0,79.8,29.88,South,171,10.9,15.0,96,0.00,CLR,,0.00,WeatherDisplay:10.37,2013-08-08 09:10:00,
2013-08-08 04:15:00,81.0,79.8,29.88,South,179,10.3,19.7,96,0.00,CLR,,0.00,WeatherDisplay:10.37,2013-08-08 09:15:00,
2013-08-08 04:20:00,80.9,79.7,29.87,SE,143,11.1,21.0,96,0.00,CLR,,0.00,WeatherDisplay:10.37,2013-08-08 09:20:00,
2013-08-08 04:25:00,80.8,79.6,29.87,SSE,165,11.7,20.7,96,0.00,CLR,,0.00,WeatherDisplay:10.37,2013-08-08 09:25:00,
2013-08-08 04:30:00,80.7,79.5,29.87,SSE,157,9.5,21.1,96,0.00,CLR,,0.00,WeatherDisplay:10.37,2013-08-08 09:30:00,
2013-08-08 04:35:00,80.7,79.5,29.87,SSE,150,11.3,18.0,96,0.00,CLR,,0.00,WeatherDisplay:10.37,2013-08-08 09:35:00,
2013-08-08 04:40:00,80.6,79.4,29.87,SSE,164,11.3,18.9,96,0.00,CLR,,0.00,WeatherDisplay:10.37,2013-08-08 09:40:00,
2013-08-08 04:45:00,80.6,79.4,29.87,SSE,164,13.2,20.7,96,0.00,CLR,,0.00,WeatherDisplay:10.37,2013-08-08 09:45:00,
2013-08-08 04:50:00,80.7,79.5,29.87,SE,143,9.9,16.1,96,0.00,CLR,,0.00,WeatherDisplay:10.37,2013-08-08 09:50:00,
2013-08-08 04:55:00,80.6,79.4,29.87,SE,144,11.5,17.3,96,0.00,CLR,,0.00,WeatherDisplay:10.37,2013-08-08 09:55:00,
2013-08-08 05:00:00,80.6,79.4,29.87,SSE,151,12.0,16.7,96,0.00,CLR,,0.00,WeatherDisplay:10.37,2013-08-08 10:00:00,
2013-08-08 05:05:00,80.5,79.3,29.87,South,172,8.3,17.5,96,0.00,CLR,,0.00,WeatherDisplay:10.37,2013-08-08 10:05:00,
2013-08-08 05:10:00,80.5,79.3,29.87,SSE,148,10.4,17.0,96,0.00,CLR,,0.00,WeatherDisplay:10.37,2013-08-08 10:10:00,
2013-08-08 05:15:00,80.3,79.1,29.87,South,169,12.6,18.8,96,0.00,CLR,,0.00,WeatherDisplay:10.37,2013-08-08 10:15:00,
2013-08-08 05:21:00,80.4,79.2,29.87,SSE,161,11.8,16.1,96,0.00,CLR,,0.00,WeatherDisplay:10.37,2013-08-08 10:21:00,
2013-08-08 05:26:00,80.4,79.2,29.87,South,184,10.7,16.1,96,0.00,CLR,,0.00,WeatherDisplay:10.37,2013-08-08 10:26:00,
2013-08-08 05:31:00,80.3,79.1,29.87,South,179,8.9,15.0,96,0.00,CLR,,0.00,WeatherDisplay:10.37,2013-08-08 10:31:00,
2013-08-08 05:36:00,80.5,79.3,29.87,SSE,152,11.6,16.1,96,0.00,CLR,,0.00,WeatherDisplay:10.37,2013-08-08 10:36:00,
2013-08-08 05:41:00,80.3,79.1,29.87,South,176,10.5,16.1,96,0.00,CLR,,0.00,WeatherDisplay:10.37,2013-08-08 10:41:00,
2013-08-08 05:46:00,80.5,79.3,29.87,South,178,11.8,17.8,96,0.00,CLR,,0.00,WeatherDisplay:10.37,2013-08-08 10:46:00,
2013-08-08 05:51:00,80.4,79.2,29.87,South,178,10.3,17.3,96,0.00,CLR,,0.00,WeatherDisplay:10.37,2013-08-08 10:51:00,
2013-08-08 05:56:00,80.5,79.3,29.87,South,178,9.9,16.1,96,0.00,CLR,,0.00,WeatherDisplay:10.37,2013-08-08 10:56:00,
2013-08-08 06:01:00,80.4,79.2,29.87,South,171,11.0,17.3,96,0.00,CLR,,0.00,WeatherDisplay:10.37,2013-08-08 11:01:00,
2013-08-08 06:06:00,80.4,79.2,29.87,South,186,12.7,17.3,96,0.00,CLR,,0.00,WeatherDisplay:10.37,2013-08-08 11:06:00,
2013-08-08 06:11:00,80.3,79.1,29.86,SE,145,12.4,17.1,96,0.00,CLR,,0.00,WeatherDisplay:10.37,2013-08-08 11:11:00,
2013-08-08 06:16:00,80.4,79.2,29.86,South,191,11.4,17.7,96,0.00,CLR,,0.00,WeatherDisplay:10.37,2013-08-08 11:16:00,
2013-08-08 06:21:00,80.3,79.1,29.87,SSE,165,9.6,17.3,96,0.00,CLR,,0.00,WeatherDisplay:10.37,2013-08-08 11:21:00,
2013-08-08 06:26:00,80.4,79.2,29.87,South,184,11.2,16.1,96,0.00,CLR,,0.00,WeatherDisplay:10.37,2013-08-08 11:26:00,
2013-08-08 06:31:00,80.4,79.2,29.87,SSE,168,11.6,16.9,96,0.00,CLR,,0.00,WeatherDisplay:10.37,2013-08-08 11:31:00,
2013-08-08 06:36:00,80.3,79.1,29.87,South,182,10.0,15.3,96,0.00,CLR,,0.00,WeatherDisplay:10.37,2013-08-08 11:36:00,
2013-08-08 06:41:00,80.3,79.1,29.87,SSE,167,11.5,20.7,96,0.00,CLR,,0.00,WeatherDisplay:10.37,2013-08-08 11:41:00,
2013-08-08 06:46:00,80.4,79.2,29.87,South,171,10.8,18.2,96,0.00,CLR,,0.00,WeatherDisplay:10.37,2013-08-08 11:46:00,
2013-08-08 06:51:00,80.3,79.1,29.87,South,169,11.0,17.3,96,0.00,CLR,,0.00,WeatherDisplay:10.37,2013-08-08 11:51:00,
2013-08-08 06:56:00,80.4,79.2,29.87,SSE,158,9.7,13.8,96,0.00,CLR,,0.00,WeatherDisplay:10.37,2013-08-08 11:56:00,
2013-08-08 07:01:00,80.4,79.2,29.88,SSE,168,10.0,17.3,96,0.00,CLR,,0.00,WeatherDisplay:10.37,2013-08-08 12:01:00,
2013-08-08 07:06:00,80.4,79.2,29.88,South,185,11.8,17.3,96,0.00,CLR,,0.00,WeatherDisplay:10.37,2013-08-08 12:06:00,
2013-08-08 07:11:00,80.4,79.2,29.88,SSE,168,9.1,17.3,96,0.00,CLR,,0.00,WeatherDisplay:10.37,2013-08-08 12:11:00,
2013-08-08 07:16:00,80.3,79.1,29.88,South,169,7.4,12.7,96,0.00,CLR,,0.00,WeatherDisplay:10.37,2013-08-08 12:16:00,
2013-08-08 07:21:00,80.3,79.1,29.88,South,171,10.5,15.0,96,0.00,CLR,,0.00,WeatherDisplay:10.37,2013-08-08 12:21:00,
2013-08-08 07:26:00,80.5,79.3,29.88,SSE,168,9.0,11.9,96,0.00,CLR,,0.00,WeatherDisplay:10.37,2013-08-08 12:26:00,
2013-08-08 07:31:00,80.4,79.2,29.88,South,169,10.3,13.8,96,0.00,CLR,,0.00,WeatherDisplay:10.37,2013-08-08 12:31:00,
2013-08-08 07:36:00,80.3,79.1,29.88,SW,217,8.2,12.7,96,0.00,CLR,,0.00,WeatherDisplay:10.37,2013-08-08 12:36:00,
2013-08-08 07:41:00,80.3,79.1,29.88,South,169,8.3,13.8,96,0.00,CLR,,0.00,WeatherDisplay:10.37,2013-08-08 12:41:00,
2013-08-08 07:46:00,80.4,79.2,29.89,South,175,8.5,12.7,96,0.00,CLR,,0.00,WeatherDisplay:10.37,2013-08-08 12:46:00,
2013-08-08 07:51:00,80.5,79.3,29.89,South,182,7.9,15.0,96,0.00,CLR,,0.00,WeatherDisplay:10.37,2013-08-08 12:51:00,
2013-08-08 07:56:00,80.4,79.2,29.89,SSE,165,6.6,12.4,96,0.00,CLR,,0.00,WeatherDisplay:10.37,2013-08-08 12:56:00,
2013-08-08 08:01:00,80.6,79.4,29.90,SE,145,6.7,12.7,96,0.00,CLR,,0.00,WeatherDisplay:10.37,2013-08-08 13:01:00,
2013-08-08 08:06:00,80.7,79.5,29.90,South,174,7.3,10.7,96,0.00,CLR,,0.00,WeatherDisplay:10.37,2013-08-08 13:06:00,
2013-08-08 08:11:00,80.6,79.4,29.89,South,181,7.6,11.5,96,0.00,CLR,,0.00,WeatherDisplay:10.37,2013-08-08 13:11:00,
2013-08-08 08:16:00,80.8,79.6,29.89,SSW,196,7.4,11.1,96,0.00,CLR,,0.00,WeatherDisplay:10.37,2013-08-08 13:16:00,
2013-08-08 08:21:00,80.9,79.7,29.89,SSW,192,7.4,13.8,96,0.00,CLR,,0.00,WeatherDisplay:10.37,2013-08-08 13:21:00,
2013-08-08 08:26:00,81.0,79.8,29.89,South,178,6.6,12.7,96,0.00,CLR,,0.00,WeatherDisplay:10.37,2013-08-08 13:26:00,
2013-08-08 08:31:00,81.0,79.8,29.90,South,176,7.5,10.4,96,0.00,CLR,,0.00,WeatherDisplay:10.37,2013-08-08 13:31:00,
2013-08-08 08:36:00,81.1,79.5,29.90,SSE,155,8.4,11.6,95,0.00,CLR,,0.00,WeatherDisplay:10.37,2013-08-08 13:36:00,
2013-08-08 08:41:00,81.2,79.6,29.90,SSE,151,8.2,12.6,95,0.00,CLR,,0.00,WeatherDisplay:10.37,2013-08-08 13:41:00,
2013-08-08 08:47:00,81.4,79.8,29.90,South,171,8.3,13.8,95,0.00,CLR,,0.00,WeatherDisplay:10.37,2013-08-08 13:47:00,
2013-08-08 08:52:00,81.4,79.8,29.90,SSW,196,7.0,12.1,95,0.00,CLR,,0.00,WeatherDisplay:10.37,2013-08-08 13:52:00,
2013-08-08 08:57:00,81.5,79.6,29.90,South,174,7.7,15.0,94,0.00,CLR,,0.00,WeatherDisplay:10.37,2013-08-08 13:57:00,
2013-08-08 09:02:00,81.7,79.8,29.90,SSE,155,6.3,11.7,94,0.00,CLR,,0.00,WeatherDisplay:10.37,2013-08-08 14:02:00,
2013-08-08 09:07:00,81.7,79.8,29.90,SSE,157,8.6,15.0,94,0.00,CLR,,0.00,WeatherDisplay:10.37,2013-08-08 14:07:00,
2013-08-08 09:12:00,81.7,79.5,29.90,South,184,8.8,12.7,93,0.00,CLR,,0.00,WeatherDisplay:10.37,2013-08-08 14:12:00,
2013-08-08 09:17:00,82.0,79.8,29.90,SSE,158,6.5,12.7,93,0.00,CLR,,0.00,WeatherDisplay:10.37,2013-08-08 14:17:00,
2013-08-08 09:22:00,82.2,80.0,29.90,SSE,164,9.2,14.0,93,0.00,CLR,,0.00,WeatherDisplay:10.37,2013-08-08 14:22:00,
2013-08-08 09:27:00,82.2,79.6,29.91,South,179,8.3,14.7,92,0.00,CLR,,0.00,WeatherDisplay:10.37,2013-08-08 14:27:00,
2013-08-08 09:32:00,82.4,79.5,29.90,SSE,154,8.0,15.0,91,0.00,CLR,,0.00,WeatherDisplay:10.37,2013-08-08 14:32:00,
2013-08-08 09:37:00,82.4,79.2,29.91,SSE,158,10.2,13.2,90,0.00,CLR,,0.00,WeatherDisplay:10.37,2013-08-08 14:37:00,
2013-08-08 09:42:00,82.4,79.2,29.91,SSE,162,8.0,13.8,90,0.00,CLR,,0.00,WeatherDisplay:10.37,2013-08-08 14:42:00,
2013-08-08 09:47:00,82.6,79.4,29.91,South,175,7.8,13.8,90,0.00,CLR,,0.00,WeatherDisplay:10.37,2013-08-08 14:47:00,
2013-08-08 09:52:00,82.7,78.8,29.91,South,172,9.2,15.0,88,0.00,CLR,,0.00,WeatherDisplay:10.37,2013-08-08 14:52:00,
2013-08-08 09:57:00,82.9,79.0,29.91,SSW,202,7.9,11.5,88,0.00,CLR,,0.00,WeatherDisplay:10.37,2013-08-08 14:57:00,
2013-08-08 10:02:00,83.2,78.9,29.91,South,178,7.8,13.8,87,0.00,CLR,,0.00,WeatherDisplay:10.37,2013-08-08 15:02:00,
2013-08-08 10:07:00,83.1,78.8,29.91,SSE,167,9.6,13.9,87,0.00,CLR,,0.00,WeatherDisplay:10.37,2013-08-08 15:07:00,
2013-08-08 10:12:00,83.2,78.6,29.91,SSE,151,8.8,13.8,86,0.00,CLR,,0.00,WeatherDisplay:10.37,2013-08-08 15:12:00,
2013-08-08 10:17:00,83.4,78.4,29.91,SSE,147,9.0,14.0,85,0.00,CLR,,0.00,WeatherDisplay:10.37,2013-08-08 15:17:00,
2013-08-08 10:22:00,83.4,78.4,29.91,SE,138,8.3,15.0,85,0.00,CLR,,0.00,WeatherDisplay:10.37,2013-08-08 15:22:00,
2013-08-08 10:27:00,83.6,78.2,29.91,South,174,9.1,13.8,84,0.00,CLR,,0.00,WeatherDisplay:10.37,2013-08-08 15:27:00,
2013-08-08 10:32:00,83.8,78.4,29.91,SSE,164,9.3,15.4,84,0.00,CLR,,0.00,WeatherDisplay:10.37,2013-08-08 15:32:00,
2013-08-08 10:37:00,83.9,78.2,29.91,South,181,11.7,15.0,83,0.00,CLR,,0.00,WeatherDisplay:10.37,2013-08-08 15:37:00,
2013-08-08 10:42:00,84.1,78.4,29.91,SSW,198,8.7,16.1,83,0.00,CLR,,0.00,WeatherDisplay:10.37,2013-08-08 15:42:00,
2013-08-08 10:47:00,84.3,78.2,29.91,SSE,151,9.2,12.7,82,0.00,CLR,,0.00,WeatherDisplay:10.37,2013-08-08 15:47:00,
2013-08-08 10:52:00,84.7,78.6,29.92,South,172,6.6,10.4,82,0.00,CLR,,0.00,WeatherDisplay:10.37,2013-08-08 15:52:00,
2013-08-08 10:57:00,84.8,78.3,29.92,SSE,161,9.4,14.1,81,0.00,CLR,,0.00,WeatherDisplay:10.37,2013-08-08 15:57:00,
2013-08-08 11:02:00,85.0,78.1,29.92,SSE,161,6.7,11.5,80,0.00,CLR,,0.00,WeatherDisplay:10.37,2013-08-08 16:02:00,
2013-08-08 11:07:00,85.0,78.1,29.92,SSE,154,8.9,14.1,80,0.00,CLR,,0.00,WeatherDisplay:10.37,2013-08-08 16:07:00,
2013-08-08 11:12:00,84.9,77.7,29.92,SE,134,11.7,20.7,79,0.00,CLR,,0.00,WeatherDisplay:10.37,2013-08-08 16:12:00,
2013-08-08 11:17:00,85.0,78.1,29.92,SSE,167,9.7,16.1,80,0.00,CLR,,0.00,WeatherDisplay:10.37,2013-08-08 16:17:00,
2013-08-08 11:22:00,85.2,77.9,29.92,SSE,164,9.3,16.1,79,0.00,CLR,,0.00,WeatherDisplay:10.37,2013-08-08 16:22:00,
2013-08-08 11:27:00,85.2,77.6,29.92,South,176,11.3,16.7,78,0.00,CLR,,0.00,WeatherDisplay:10.37,2013-08-08 16:27:00,
2013-08-08 11:32:00,85.1,77.5,29.93,SSE,168,11.2,17.2,78,0.00,CLR,,0.00,WeatherDisplay:10.37,2013-08-08 16:32:00,
2013-08-08 11:37:00,85.1,77.8,29.93,SE,144,8.8,18.4,79,0.00,CLR,,0.00,WeatherDisplay:10.37,2013-08-08 16:37:00,
2013-08-08 11:42:00,85.2,77.6,29.92,SE,141,10.5,16.1,78,0.00,CLR,,0.00,WeatherDisplay:10.37,2013-08-08 16:42:00,
2013-08-08 11:47:00,85.3,77.7,29.92,SE,127,8.1,13.8,78,0.00,CLR,,0.00,WeatherDisplay:10.37,2013-08-08 16:47:00,
2013-08-08 11:52:00,85.3,77.7,29.92,SSW,198,9.8,16.1,78,0.00,CLR,,0.00,WeatherDisplay:10.37,2013-08-08 16:52:00,
2013-08-08 11:57:00,85.3,77.7,29.92,SSE,155,12.1,13.8,78,0.00,CLR,,0.00,WeatherDisplay:10.37,2013-08-08 16:57:00,
2013-08-08 12:02:00,85.3,77.7,29.92,SE,144,9.2,15.4,78,0.00,CLR,,0.00,WeatherDisplay:10.37,2013-08-08 17:02:00,
2013-08-08 12:07:00,85.5,77.9,29.92,SSE,164,10.4,16.6,78,0.00,CLR,,0.00,WeatherDisplay:10.37,2013-08-08 17:07:00,
2013-08-08 12:12:00,85.7,78.0,29.92,ESE,123,9.5,15.0,78,0.00,CLR,,0.00,WeatherDisplay:10.37,2013-08-08 17:12:00,
2013-08-08 12:17:00,85.8,78.1,29.92,SSE,158,8.9,16.1,78,0.00,CLR,,0.00,WeatherDisplay:10.37,2013-08-08 17:17:00,
2013-08-08 12:22:00,85.6,77.2,29.92,SSE,152,10.6,16.1,76,0.00,CLR,,0.00,WeatherDisplay:10.37,2013-08-08 17:22:00,
2013-08-08 12:27:00,85.7,77.3,29.91,SSE,155,12.2,18.5,76,0.00,CLR,,0.00,WeatherDisplay:10.37,2013-08-08 17:27:00,
2013-08-08 12:32:00,85.9,77.5,29.92,ESE,113,9.2,16.1,76,0.00,CLR,,0.00,WeatherDisplay:10.37,2013-08-08 17:32:00,
2013-08-08 12:37:00,85.6,77.2,29.92,ESE,114,11.2,15.4,76,0.00,CLR,,0.00,WeatherDisplay:10.37,2013-08-08 17:37:00,
2013-08-08 12:42:00,85.7,76.9,29.91,SSE,168,8.4,16.1,75,0.00,CLR,,0.00,WeatherDisplay:10.37,2013-08-08 17:42:00,
2013-08-08 12:47:00,85.8,77.4,29.91,SE,138,10.8,15.0,76,0.00,CLR,,0.00,WeatherDisplay:10.37,2013-08-08 17:47:00,
2013-08-08 12:52:00,86.2,77.7,29.91,SSE,157,12.8,16.2,76,0.00,CLR,,0.00,WeatherDisplay:10.37,2013-08-08 17:52:00,
2013-08-08 12:57:00,86.3,77.4,29.91,SE,144,9.8,16.1,75,0.00,CLR,,0.00,WeatherDisplay:10.37,2013-08-08 17:57:00,
2013-08-08 13:02:00,86.4,77.1,29.91,SE,141,10.8,16.1,74,0.00,CLR,,0.00,WeatherDisplay:10.37,2013-08-08 18:02:00,
2013-08-08 13:07:00,86.4,77.5,29.91,SE,141,11.5,17.3,75,0.00,CLR,,0.00,WeatherDisplay:10.37,2013-08-08 18:07:00,
2013-08-08 13:12:00,86.4,77.1,29.91,SE,133,12.0,15.0,74,0.00,CLR,,0.00,WeatherDisplay:10.37,2013-08-08 18:12:00,
2013-08-08 13:17:00,86.5,76.8,29.90,SSE,157,12.3,17.3,73,0.00,CLR,,0.00,WeatherDisplay:10.37,2013-08-08 18:17:00,
2013-08-08 13:22:00,86.5,76.8,29.90,SE,133,12.9,17.1,73,0.00,CLR,,0.00,WeatherDisplay:10.37,2013-08-08 18:22:00,
2013-08-08 13:27:00,86.7,76.6,29.90,ESE,119,11.7,16.7,72,0.00,CLR,,0.00,WeatherDisplay:10.37,2013-08-08 18:27:00,
2013-08-08 13:32:00,87.1,76.1,29.90,SSE,158,11.2,17.9,70,0.00,CLR,,0.00,WeatherDisplay:10.37,2013-08-08 18:32:00,
2013-08-08 13:37:00,87.0,76.5,29.90,SSE,148,11.4,17.3,71,0.00,CLR,,0.00,WeatherDisplay:10.37,2013-08-08 18:37:00,
2013-08-08 13:42:00,87.2,76.6,29.90,ESE,117,10.8,15.4,71,0.00,CLR,,0.00,WeatherDisplay:10.37,2013-08-08 18:42:00,
2013-08-08 13:47:00,87.5,77.4,29.91,SSE,148,11.2,16.1,72,0.00,CLR,,0.00,WeatherDisplay:10.37,2013-08-08 18:47:00,
2013-08-08 13:52:00,87.5,77.4,29.90,SE,130,12.6,17.6,72,0.00,CLR,,0.00,WeatherDisplay:10.37,2013-08-08 18:52:00,
2013-08-08 13:57:00,87.5,76.9,29.90,SE,137,10.8,15.5,71,0.00,CLR,,0.00,WeatherDisplay:10.37,2013-08-08 18:57:00,
2013-08-08 14:02:00,87.5,77.4,29.90,SSE,164,10.4,13.8,72,0.00,CLR,,0.00,WeatherDisplay:10.37,2013-08-08 19:02:00,
2013-08-08 14:08:00,87.4,76.4,29.90,SSE,155,12.8,18.4,70,0.00,CLR,,0.00,WeatherDisplay:10.37,2013-08-08 19:08:00,
2013-08-08 14:13:00,87.5,76.9,29.90,SE,134,9.7,13.8,71,0.00,CLR,,0.00,WeatherDisplay:10.37,2013-08-08 19:13:00,
2013-08-08 14:18:00,87.6,77.0,29.90,SE,134,11.1,16.1,71,0.00,CLR,,0.00,WeatherDisplay:10.37,2013-08-08 19:18:00,
2013-08-08 14:23:00,87.5,76.9,29.90,ESE,110,11.4,16.2,71,0.00,CLR,,0.00,WeatherDisplay:10.37,2013-08-08 19:23:00,
2013-08-08 14:28:00,87.6,76.2,29.90,East,95,11.6,17.3,69,0.00,CLR,,0.00,WeatherDisplay:10.37,2013-08-08 19:28:00,
2013-08-08 14:33:00,87.8,76.4,29.89,SE,137,10.3,16.1,69,0.00,CLR,,0.00,WeatherDisplay:10.37,2013-08-08 19:33:00,
2013-08-08 14:38:00,87.9,76.5,29.89,SSE,147,11.5,17.5,69,0.00,CLR,,0.00,WeatherDisplay:10.37,2013-08-08 19:38:00,
2013-08-08 14:44:00,88.1,76.2,29.89,SE,140,11.9,17.5,68,0.00,CLR,,0.00,WeatherDisplay:10.37,2013-08-08 19:44:00,
2013-08-08 14:49:00,88.1,76.2,29.89,SE,127,10.8,16.1,68,0.00,CLR,,0.00,WeatherDisplay:10.37,2013-08-08 19:49:00,
2013-08-08 14:54:00,88.0,76.5,29.89,SSE,151,8.6,18.4,69,0.00,CLR,,0.00,WeatherDisplay:10.37,2013-08-08 19:54:00,
2013-08-08 14:59:00,88.1,76.6,29.88,SE,145,13.0,16.1,69,0.00,CLR,,0.00,WeatherDisplay:10.37,2013-08-08 19:59:00,
2013-08-08 15:04:00,88.1,76.2,29.88,SE,133,10.8,19.6,68,0.00,CLR,,0.00,WeatherDisplay:10.37,2013-08-08 20:04:00,
2013-08-08 15:09:00,88.3,76.8,29.88,SE,127,11.2,17.3,69,0.00,CLR,,0.00,WeatherDisplay:10.37,2013-08-08 20:09:00,
2013-08-08 15:14:00,88.2,75.9,29.88,ESE,107,13.4,17.8,67,0.00,CLR,,0.00,WeatherDisplay:10.37,2013-08-08 20:14:00,
2013-08-08 15:19:00,88.4,76.9,29.88,SE,131,8.6,18.4,69,0.00,CLR,,0.00,WeatherDisplay:10.37,2013-08-08 20:19:00,
2013-08-08 15:24:00,88.3,75.5,29.88,ESE,112,12.6,20.0,66,0.00,CLR,,0.00,WeatherDisplay:10.37,2013-08-08 20:24:00,
2013-08-08 15:29:00,88.5,75.7,29.88,SE,138,12.4,20.8,66,0.00,CLR,,0.00,WeatherDisplay:10.37,2013-08-08 20:29:00,
2013-08-08 15:34:00,88.5,76.1,29.88,ESE,117,12.1,18.4,67,0.00,CLR,,0.00,WeatherDisplay:10.37,2013-08-08 20:34:00,
2013-08-08 15:39:00,88.5,76.1,29.88,ESE,109,9.3,19.6,67,0.00,CLR,,0.00,WeatherDisplay:10.37,2013-08-08 20:39:00,
2013-08-08 15:44:00,88.5,76.1,29.87,ESE,117,10.6,17.3,67,0.00,CLR,,0.00,WeatherDisplay:10.37,2013-08-08 20:44:00,
2013-08-08 15:49:00,88.8,76.9,29.87,East,96,11.3,17.4,68,0.00,CLR,,0.00,WeatherDisplay:10.37,2013-08-08 20:49:00,
2013-08-08 15:54:00,88.7,76.3,29.87,SSE,147,12.1,21.9,67,0.00,CLR,,0.00,WeatherDisplay:10.37,2013-08-08 20:54:00,
2013-08-08 15:59:00,88.7,75.9,29.87,SE,130,11.8,21.9,66,0.00,CLR,,0.00,WeatherDisplay:10.37,2013-08-08 20:59:00,
2013-08-08 16:04:00,88.9,76.1,29.87,ESE,123,14.2,20.8,66,0.00,CLR,,0.00,WeatherDisplay:10.37,2013-08-08 21:04:00,
2013-08-08 16:09:00,88.8,76.9,29.86,ESE,113,11.7,18.4,68,0.00,CLR,,0.00,WeatherDisplay:10.37,2013-08-08 21:09:00,
2013-08-08 16:14:00,88.7,76.3,29.86,East,99,14.0,18.4,67,0.00,CLR,,0.00,WeatherDisplay:10.37,2013-08-08 21:14:00,
2013-08-08 16:20:00,88.8,76.0,29.86,SE,134,12.2,21.9,66,0.00,CLR,,0.00,WeatherDisplay:10.37,2013-08-08 21:20:00,
2013-08-08 16:25:00,88.8,76.0,29.86,East,86,12.1,19.6,66,0.00,CLR,,0.00,WeatherDisplay:10.37,2013-08-08 21:25:00,
2013-08-08 16:30:00,89.0,77.1,29.86,ESE,123,9.9,21.8,68,0.00,CLR,,0.00,WeatherDisplay:10.37,2013-08-08 21:30:00,
2013-08-08 16:36:00,88.9,77.0,29.85,SE,134,13.1,20.7,68,0.00,CLR,,0.00,WeatherDisplay:10.37,2013-08-08 21:36:00,
2013-08-08 16:41:00,89.1,76.7,29.85,East,86,13.7,21.9,67,0.00,CLR,,0.00,WeatherDisplay:10.37,2013-08-08 21:41:00,
2013-08-08 16:46:00,89.3,76.9,29.85,East,93,12.2,19.6,67,0.00,CLR,,0.00,WeatherDisplay:10.37,2013-08-08 21:46:00,
2013-08-08 16:51:00,89.0,77.1,29.85,ENE,76,12.6,21.6,68,0.00,CLR,,0.00,WeatherDisplay:10.37,2013-08-08 21:51:00,
2013-08-08 16:56:00,88.6,76.7,29.85,SE,138,11.8,18.4,68,0.00,CLR,,0.00,WeatherDisplay:10.37,2013-08-08 21:56:00,
2013-08-08 17:01:00,88.6,76.7,29.85,East,96,14.5,22.3,68,0.00,CLR,,0.00,WeatherDisplay:10.37,2013-08-08 22:01:00,
2013-08-08 17:07:00,88.3,76.4,29.85,SE,134,15.4,24.2,68,0.00,,,0.00,WeatherDisplay:10.37,2013-08-08 22:07:00,
2013-08-08 17:12:00,88.4,76.5,29.85,SE,128,13.9,23.0,68,0.00,,,0.00,WeatherDisplay:10.37,2013-08-08 22:12:00,
2013-08-08 17:17:00,88.7,76.8,29.85,SSE,148,14.1,24.2,68,0.00,,,0.00,WeatherDisplay:10.37,2013-08-08 22:17:00,
2013-08-08 17:22:00,88.7,76.8,29.85,SE,127,13.9,23.4,68,0.00,CLR,,0.00,WeatherDisplay:10.37,2013-08-08 22:22:00,
2013-08-08 17:27:00,88.3,77.3,29.85,SE,128,13.8,23.0,70,0.00,CLR,,0.00,WeatherDisplay:10.37,2013-08-08 22:27:00,
2013-08-08 17:32:00,88.3,77.7,29.84,SE,136,10.1,25.3,71,0.00,CLR,,0.00,WeatherDisplay:10.37,2013-08-08 22:32:00,
2013-08-08 17:37:00,88.4,77.8,29.84,ESE,117,12.9,23.0,71,0.00,CLR,,0.00,WeatherDisplay:10.37,2013-08-08 22:37:00,
2013-08-08 17:42:00,88.4,78.2,29.84,ESE,112,11.5,19.6,72,0.00,CLR,,0.00,WeatherDisplay:10.37,2013-08-08 22:42:00,
2013-08-08 17:47:00,88.2,77.6,29.84,ESE,120,11.0,17.7,71,0.00,CLR,,0.00,WeatherDisplay:10.37,2013-08-08 22:47:00,
2013-08-08 17:53:00,88.0,77.4,29.84,SE,130,10.9,19.4,71,0.00,CLR,,0.00,WeatherDisplay:10.37,2013-08-08 22:53:00,
2013-08-08 17:58:00,87.7,77.5,29.84,ESE,114,12.5,21.4,72,0.00,CLR,,0.00,WeatherDisplay:10.37,2013-08-08 22:58:00,
2013-08-08 18:03:00,87.5,77.4,29.84,SE,126,14.5,20.1,72,0.00,CLR,,0.00,WeatherDisplay:10.37,2013-08-08 23:03:00,
2013-08-08 18:08:00,87.6,77.9,29.84,SE,138,12.1,18.4,73,0.00,CLR,,0.00,WeatherDisplay:10.37,2013-08-08 23:08:00,
2013-08-08 18:13:00,87.4,77.7,29.84,ESE,117,11.1,18.4,73,0.00,CLR,,0.00,WeatherDisplay:10.37,2013-08-08 23:13:00,
2013-08-08 18:18:00,87.1,77.8,29.83,ESE,104,13.4,20.5,74,0.00,CLR,,0.00,WeatherDisplay:10.37,2013-08-08 23:18:00,
2013-08-08 18:24:00,87.0,78.1,29.83,ESE,121,10.4,17.6,75,0.00,CLR,,0.00,WeatherDisplay:10.37,2013-08-08 23:24:00,
2013-08-08 18:29:00,86.9,78.4,29.83,East,93,10.8,23.0,76,0.00,CLR,,0.00,WeatherDisplay:10.37,2013-08-08 23:29:00,
2013-08-08 18:34:00,86.7,78.2,29.83,ESE,106,14.2,21.9,76,0.00,CLR,,0.00,WeatherDisplay:10.37,2013-08-08 23:34:00,
2013-08-08 18:39:00,86.6,78.1,29.83,ESE,109,13.7,23.0,76,0.00,CLR,,0.00,WeatherDisplay:10.37,2013-08-08 23:39:00,
2013-08-08 18:44:00,86.4,77.9,29.84,SE,130,15.4,20.8,76,0.00,CLR,,0.00,WeatherDisplay:10.37,2013-08-08 23:44:00,
2013-08-08 18:49:00,86.3,78.2,29.84,SE,141,12.5,20.0,77,0.00,CLR,,0.00,WeatherDisplay:10.37,2013-08-08 23:49:00,
2013-08-08 18:54:00,86.2,77.7,29.84,SE,126,11.4,25.3,76,0.00,CLR,,0.00,WeatherDisplay:10.37,2013-08-08 23:54:00,
2013-08-08 18:59:00,86.1,77.6,29.84,ESE,121,9.6,17.3,76,0.00,,,0.00,WeatherDisplay:10.37,2013-08-08 23:59:00,
2013-08-08 19:04:00,86.1,78.0,29.84,ESE,106,12.1,19.0,77,0.00,,,0.00,WeatherDisplay:10.37,2013-08-09 00:04:00,
2013-08-08 19:10:00,86.0,77.9,29.84,SE,138,13.5,19.6,77,0.00,,,0.00,WeatherDisplay:10.37,2013-08-09 00:10:00,
2013-08-08 19:15:00,85.9,78.2,29.84,ESE,113,11.3,19.6,78,0.00,CLR,,0.00,WeatherDisplay:10.37,2013-08-09 00:15:00,
2013-08-08 19:20:00,85.5,77.9,29.84,SE,134,12.7,23.2,78,0.00,CLR,,0.00,WeatherDisplay:10.37,2013-08-09 00:20:00,
2013-08-08 19:25:00,85.5,78.2,29.84,SE,133,14.6,23.4,79,0.00,CLR,,0.00,WeatherDisplay:10.37,2013-08-09 00:25:00,
2013-08-08 19:30:00,85.4,78.5,29.84,ESE,119,12.0,22.3,80,0.00,CLR,,0.00,WeatherDisplay:10.37,2013-08-09 00:30:00,
2013-08-08 19:35:00,85.0,78.1,29.84,SSE,147,12.4,18.6,80,0.00,CLR,,0.00,WeatherDisplay:10.37,2013-08-09 00:35:00,
2013-08-08 19:41:00,85.0,78.1,29.84,ESE,113,11.5,23.0,80,0.00,CLR,,0.00,WeatherDisplay:10.37,2013-08-09 00:41:00,
2013-08-08 19:46:00,84.6,77.7,29.84,ESE,110,12.5,19.0,80,0.00,CLR,,0.00,WeatherDisplay:10.37,2013-08-09 00:46:00,
2013-08-08 19:51:00,84.6,78.1,29.84,ESE,107,11.9,18.9,81,0.00,CLR,,0.00,WeatherDisplay:10.37,2013-08-09 00:51:00,
2013-08-08 19:56:00,84.3,77.8,29.84,SE,130,13.2,19.6,81,0.00,CLR,,0.00,WeatherDisplay:10.37,2013-08-09 00:56:00,
2013-08-08 20:02:00,84.1,78.0,29.84,ESE,121,14.7,20.7,82,0.00,CLR,,0.00,WeatherDisplay:10.37,2013-08-09 01:02:00,
2013-08-08 20:07:00,83.9,78.2,29.84,ESE,109,12.2,19.6,83,0.00,CLR,,0.00,WeatherDisplay:10.37,2013-08-09 01:07:00,
2013-08-08 20:12:00,83.9,78.5,29.84,SE,134,12.5,20.7,84,0.00,CLR,,0.00,WeatherDisplay:10.37,2013-08-09 01:12:00,
2013-08-08 20:17:00,83.7,79.1,29.84,ESE,114,10.8,19.6,86,0.00,CLR,,0.00,WeatherDisplay:10.37,2013-08-09 01:17:00,
2013-08-08 20:22:00,83.5,78.9,29.84,SE,140,12.6,19.1,86,0.00,CLR,,0.00,WeatherDisplay:10.37,2013-08-09 01:22:00,
2013-08-08 20:27:00,83.4,79.1,29.84,SSE,151,13.3,18.4,87,0.00,CLR,,0.00,WeatherDisplay:10.37,2013-08-09 01:27:00,
2013-08-08 20:32:00,83.3,79.4,29.84,East,79,10.9,17.3,88,0.00,CLR,,0.00,WeatherDisplay:10.37,2013-08-09 01:32:00,
2013-08-08 20:37:00,83.1,79.2,29.84,SE,141,12.9,20.7,88,0.00,CLR,,0.00,WeatherDisplay:10.37,2013-08-09 01:37:00,
2013-08-08 20:43:00,83.0,79.1,29.84,SE,131,10.7,17.3,88,0.00,CLR,,0.00,WeatherDisplay:10.37,2013-08-09 01:43:00,
2013-08-08 20:48:00,82.9,79.0,29.84,SE,145,10.7,16.1,88,0.00,CLR,,0.00,WeatherDisplay:10.37,2013-08-09 01:48:00,
2013-08-08 20:54:00,82.7,78.8,29.84,SE,133,13.7,19.6,88,0.00,CLR,,0.00,WeatherDisplay:10.37,2013-08-09 01:54:00,
2013-08-08 20:59:00,82.7,78.8,29.84,ESE,116,10.1,17.3,88,0.00,CLR,,0.00,WeatherDisplay:10.37,2013-08-09 01:59:00,
2013-08-08 21:04:00,82.7,78.8,29.85,ESE,112,12.6,20.0,88,0.00,CLR,,0.00,WeatherDisplay:10.37,2013-08-09 02:04:00,
2013-08-08 21:09:00,82.6,78.7,29.85,ESE,113,9.4,20.0,88,0.00,CLR,,0.00,WeatherDisplay:10.37,2013-08-09 02:09:00,
2013-08-08 21:14:00,82.5,78.6,29.85,ESE,109,12.7,20.0,88,0.00,CLR,,0.00,WeatherDisplay:10.37,2013-08-09 02:14:00,
2013-08-08 21:19:00,82.5,78.6,29.85,ESE,117,11.2,20.0,88,0.00,CLR,,0.00,WeatherDisplay:10.37,2013-08-09 02:19:00,
2013-08-08 21:25:00,82.4,78.8,29.85,ESE,109,10.5,16.1,89,0.00,CLR,,0.00,WeatherDisplay:10.37,2013-08-09 02:25:00,
2013-08-08 21:30:00,82.5,78.9,29.85,SE,130,8.7,15.4,89,0.00,CLR,,0.00,WeatherDisplay:10.37,2013-08-09 02:30:00,
2013-08-08 21:35:00,82.5,78.9,29.86,SSE,147,10.6,17.5,89,0.00,CLR,,0.00,WeatherDisplay:10.37,2013-08-09 02:35:00,
2013-08-08 21:40:00,82.4,79.2,29.86,ESE,119,11.1,16.7,90,0.00,CLR,,0.00,WeatherDisplay:10.37,2013-08-09 02:40:00,
2013-08-08 21:46:00,82.3,79.1,29.87,East,97,9.5,15.2,90,0.00,CLR,,0.00,WeatherDisplay:10.37,2013-08-09 02:46:00,
2013-08-08 21:51:00,82.4,79.2,29.87,ESE,109,10.9,16.1,90,0.00,CLR,,0.00,WeatherDisplay:10.37,2013-08-09 02:51:00,
2013-08-08 21:57:00,82.3,79.4,29.87,SSE,151,7.5,12.7,91,0.00,CLR,,0.00,WeatherDisplay:10.37,2013-08-09 02:57:00,
2013-08-08 22:02:00,82.3,79.4,29.87,SE,137,11.5,14.1,91,0.00,CLR,,0.00,WeatherDisplay:10.37,2013-08-09 03:02:00,
2013-08-08 22:07:00,82.1,78.9,29.87,SE,126,11.5,16.4,90,0.00,CLR,,0.00,WeatherDisplay:10.37,2013-08-09 03:07:00,
2013-08-08 22:12:00,81.9,78.7,29.88,ESE,110,10.3,17.3,90,0.00,CLR,,0.00,WeatherDisplay:10.37,2013-08-09 03:12:00,
2013-08-08 22:17:00,82.0,78.8,29.88,South,169,11.7,18.2,90,0.00,CLR,,0.00,WeatherDisplay:10.37,2013-08-09 03:17:00,
2013-08-08 22:22:00,81.9,78.7,29.88,ESE,116,9.7,13.8,90,0.00,CLR,,0.00,WeatherDisplay:10.37,2013-08-09 03:22:00,
2013-08-08 22:27:00,82.1,78.9,29.88,ESE,114,9.0,13.8,90,0.00,CLR,,0.00,WeatherDisplay:10.37,2013-08-09 03:27:00,
2013-08-08 22:32:00,82.0,78.8,29.89,SSE,152,10.2,18.4,90,0.00,CLR,,0.00,WeatherDisplay:10.37,2013-08-09 03:32:00,
2013-08-08 22:38:00,82.0,78.8,29.89,SSE,155,10.7,15.0,90,0.00,CLR,,0.00,WeatherDisplay:10.37,2013-08-09 03:38:00,
2013-08-08 22:43:00,82.0,78.8,29.89,SE,144,12.0,15.9,90,0.00,CLR,,0.00,WeatherDisplay:10.37,2013-08-09 03:43:00,
2013-08-08 22:48:00,82.0,79.1,29.89,SSE,167,9.4,16.0,91,0.00,CLR,,0.00,WeatherDisplay:10.37,2013-08-09 03:48:00,
2013-08-08 22:53:00,81.9,79.0,29.89,SSE,164,8.4,16.1,91,0.00,CLR,,0.00,WeatherDisplay:10.37,2013-08-09 03:53:00,
2013-08-08 22:58:00,82.0,79.1,29.89,SSE,158,9.8,14.7,91,0.00,CLR,,0.00,WeatherDisplay:10.37,2013-08-09 03:58:00,
2013-08-08 23:01:00,82.0,79.1,29.89,SSE,167,9.3,13.7,91,0.00,CLR,,0.00,WeatherDisplay:10.37,2013-08-09 04:01:00,
2013-08-08 23:03:00,81.8,78.9,29.89,SE,130,8.0,15.0,91,0.00,CLR,,0.00,WeatherDisplay:10.37,2013-08-09 04:03:00,
2013-08-08 23:04:00,81.8,78.9,29.89,SE,131,8.2,15.0,91,0.00,CLR,,0.00,WeatherDisplay:10.37,2013-08-09 04:04:00,
2013-08-08 23:07:00,81.8,79.2,29.89,SSE,148,9.2,13.7,92,0.00,CLR,,0.00,WeatherDisplay:10.37,2013-08-09 04:07:00,
2013-08-08 23:14:00,81.8,79.2,29.90,SE,128,13.8,13.8,92,0.00,CLR,,0.00,WeatherDisplay:10.37,2013-08-09 04:14:00,
2013-08-08 23:19:00,81.6,79.0,29.90,SSE,154,8.1,13.9,92,0.00,CLR,,0.00,WeatherDisplay:10.37,2013-08-09 04:19:00,
2013-08-08 23:24:00,81.5,78.9,29.90,SSE,154,7.7,13.8,92,0.00,CLR,,0.00,WeatherDisplay:10.37,2013-08-09 04:24:00,
2013-08-08 23:29:00,81.6,79.0,29.90,SSE,154,7.8,12.7,92,0.00,CLR,,0.00,WeatherDisplay:10.37,2013-08-09 04:29:00,
2013-08-08 23:34:00,81.4,78.9,29.90,ESE,113,7.9,11.5,92,0.00,CLR,,0.00,WeatherDisplay:10.37,2013-08-09 04:34:00,
2013-08-08 23:39:00,81.3,78.8,29.90,SSE,148,7.8,10.5,92,0.00,CLR,,0.00,WeatherDisplay:10.37,2013-08-09 04:39:00,
2013-08-08 23:44:00,81.3,78.8,29.90,SSE,168,7.7,12.1,92,0.00,CLR,,0.00,WeatherDisplay:10.37,2013-08-09 04:44:00,
2013-08-08 23:49:00,81.4,79.2,29.90,SE,138,9.0,12.3,93,0.00,CLR,,0.00,WeatherDisplay:10.37,2013-08-09 04:49:00,
2013-08-08 23:54:00,81.5,79.3,29.90,SSE,150,7.2,10.6,93,0.00,CLR,,0.00,WeatherDisplay:10.37,2013-08-09 04:54:00,
2013-08-08 23:59:00,81.4,79.2,29.90,SSE,165,8.7,12.0,93,0.00,CLR,,0.00,WeatherDisplay:10.37,2013-08-09 04:59:00,